Location: Cabeza Gorda
(40.0667°N, 4.9667°W)
Time: 20:08:14
(UTC+00:00)

Cosmos 1862 Rocket - Pass Details

Date: 15 January 2026
Orbit: 596 x 627 km, 82.5° (Epoch: 10 February)

Event Time Altitude Azimuth Distance (km) Brightness Sun altitude
Rises 06:53:37 0° 350° (N) 2,874 6.7 -9.0°
Reaches altitude 10° 06:55:51 10° 349° (N) 1,961 5.8 -8.6°
Maximum altitude 07:00:10 75° 265° (W) 628 3.5 -7.8°
Drops below altitude 10° 07:04:26 10° 180° (S) 1,931 6.4 -7.0°
Sets 07:06:37 0° 178° (S) 2,826 7.3 -6.7°
